Weather History for KRDR - October, 2013

Change the Weather History Date:

Monday, October 7, 2013

  Actual Average (KGFK) Record (KGFK)
Temperature  
Mean Temperature 49 °F 47 °F  
Max Temperature 63 °F 59 °F 87 °F (1975)
Min Temperature 35 °F 36 °F 20 °F (1989)
Degree Days  
Heating Degree Days 16 18  
Month to date heating degree days 115  
Since 1 July heating degree days 466  
Cooling Degree Days 0 0  
Month to date cooling degree days 0  
Year to date cooling degree days 378  
Moisture  
Dew Point 39 °F    
Average Humidity 69    
Maximum Humidity 94    
Minimum Humidity 43    
Precipitation  
Precipitation 0.00 in 0.07 in 1.15 in (1985)
Month to date precipitation 0.51  
Year to date precipitation 17.79  
Snow  
Snow 0.00 in 0.00 in 5.40 in (1985)
Month to date snowfall 0.1  
Since 1 July snowfall 0.1  
Since 1 September snowfall 0.1  
Snow Depth -    
Sea Level Pressure  
Sea Level Pressure 29.91 in    
Wind  
Wind Speed 6 mph (SSW)    
Max Wind Speed 12 mph    
Max Gust Speed -    
Visibility 10 miles    
Events      
T = Trace of Precipitation, MM = Missing Value Source: NWS Daily Summary

Daily Weather History Graph

Daily Weather History Graph

Search for Another Location

Airport or City:

Trip Planner

Search our weather history database for the weather conditions in past years. The results will help you decide how hot, cold, wet, or windy it might be!

Date:

Astronomy

Oct. 07, 2013 Rise Set
Actual Time 7:37 AM CDT 6:56 PM CDT
Civil Twilight 7:06 AM CDT 7:27 PM CDT
Nautical Twilight 6:30 AM CDT 8:02 PM CDT
Astronomical Twilight 5:54 AM CDT 8:39 PM CDT
Moon 10:43 AM CDT (10/7) 8:26 PM CDT (10/7)
Length of Visible Light 12h 20m
Length of Day
11h 18m
Waxing Crescent, 9% of the Moon is Illuminated
Oct 7
Waxing Crescent
Oct 11
First Quarter
Oct 18
Full
Oct 26
Last Quarter
Nov 3
New

Hourly Weather History & Observations

Time (CDT) Temp. Windchill Dew Point Humidity Pressure Visibility Wind Dir Wind Speed Gust Speed Precip Events Conditions
12:59 AM 43.3 °F 39.2 °F 39.2 °F 85% 29.89 in 10.0 mi WNW 6.9 mph - N/A   Clear
1:58 AM 43.0 °F 39.5 °F 38.8 °F 85% 29.90 in 10.0 mi NW 5.8 mph - N/A   Clear
2:58 AM 41.0 °F 37.1 °F 36.3 °F 83% 29.91 in 10.0 mi NW 5.8 mph - N/A   Clear
3:58 AM 40.1 °F 36.9 °F 35.6 °F 84% 29.92 in 10.0 mi NW 4.6 mph - N/A   Clear
4:58 AM 37.8 °F 35.3 °F 34.9 °F 89% 29.94 in 10.0 mi NW 3.5 mph - N/A   Clear
5:58 AM 36.1 °F 32.3 °F 34.0 °F 92% 29.95 in 10.0 mi NW 4.6 mph - N/A   Clear
6:58 AM 36.1 °F 32.3 °F 34.3 °F 93% 29.96 in 10.0 mi NNW 4.6 mph - N/A   Clear
7:58 AM 35.6 °F 31.7 °F 34.0 °F 94% 29.97 in 10.0 mi WNW 4.6 mph - N/A   Clear
8:58 AM 41.5 °F - 39.2 °F 91% 29.97 in 10.0 mi Calm Calm - N/A   Clear
9:58 AM 49.6 °F - 41.5 °F 74% 30.00 in 10.0 mi NNE 4.6 mph - N/A   Clear
10:58 AM 52.5 °F - 42.1 °F 68% 30.00 in 10.0 mi Calm Calm - N/A   Clear
11:58 AM 55.4 °F - 42.8 °F 63% 29.99 in 10.0 mi Variable 3.5 mph - N/A   Clear
12:58 PM 58.8 °F - 41.9 °F 53% 29.98 in 10.0 mi SSW 4.6 mph - N/A   Clear
1:58 PM 60.3 °F - 41.2 °F 49% 29.95 in 10.0 mi South 9.2 mph - N/A   Clear
2:58 PM 62.4 °F - 41.5 °F 46% 29.93 in 10.0 mi South 9.2 mph - N/A   Clear
3:58 PM 63.3 °F - 41.5 °F 45% 29.91 in 10.0 mi SSE 9.2 mph - N/A   Clear
4:58 PM 63.3 °F - 40.1 °F 43% 29.90 in 10.0 mi SSE 9.2 mph - N/A   Clear
5:58 PM 62.1 °F - 40.1 °F 44% 29.87 in 10.0 mi SSE 9.2 mph - N/A   Clear
6:58 PM 56.1 °F - 40.8 °F 57% 29.86 in 10.0 mi SE 9.2 mph - N/A   Clear
7:58 PM 54.0 °F - 40.3 °F 60% 29.86 in 10.0 mi SE 9.2 mph - N/A   Clear
8:58 PM 51.4 °F - 41.0 °F 68% 29.83 in 10.0 mi SSE 10.4 mph - N/A   Clear
9:58 PM 49.6 °F - 40.1 °F 70% 29.81 in 10.0 mi South 9.2 mph - N/A   Clear
10:58 PM 51.3 °F - 39.2 °F 63% 29.78 in 10.0 mi South 11.5 mph - N/A   Clear
11:58 PM 53.6 °F - 39.7 °F 59% 29.76 in 10.0 mi SSE 9.2 mph - N/A   Clear